GEFSNGP_500_meanwind_366.txt.gz
Wind_Speed
24 22 20 19 18 19 21 21 21 22 24 26 27 28 27 24 24 24 24 24 25 25 25 25 25 24 25 26 26 27 27 28 27 27 27 27 27 28 29 29 29 30 30 31
26 24 22 21 20 21 22 22 21 21 23 26 25 26 26 26 27 26 25 25 27 27 26 26 26 25 26 26 27 27 27 27 28 28 29 29 29 30 30 30 31 32 32 32
25 22 22 22 20 20 20 20 21 21 24 27 28 29 30 30 29 28 27 28 28 27 27 27 26 26 26 27 27 27 28 29 29 30 31 31 31 32 31 32 33 32 33 33
25 25 25 22 20 22 22 21 22 24 25 28 28 29 31 32 30 29 28 28 29 28 28 28 28 28 28 28 29 29 30 31 31 32 32 32 33 33 33 33 33 33 33 33
26 26 25 24 23 23 22 23 25 26 27 28 27 28 30 31 29 28 29 29 29 29 29 30 30 30 31 31 31 31 32 32 33 33 33 33 33 33 33 33 33 34 34 35
26 26 24 25 24 24 24 26 27 27 28 29 28 29 30 30 30 29 29 30 30 30 30 30 30 31 31 32 32 33 33 34 34 34 34 34 34 34 34 34 35 35 36 36
26 26 24 26 27 26 26 26 27 27 28 29 29 29 30 31 31 31 31 31 32 31 31 31 31 31 31 32 33 33 34 34 34 34 34 34 33 34 34 35 35 36 36 36
25 24 25 27 28 29 30 29 29 28 29 30 30 31 32 33 32 31 31 32 32 32 32 32 32 32 33 33 33 33 34 34 34 34 34 34 34 35 35 35 36 36 36 37
26 26 28 29 31 30 30 31 31 31 31 31 32 33 34 34 33 33 32 32 32 33 33 33 33 33 33 33 33 34 34 34 34 34 34 34 34 34 34 35 36 36 36 36
27 28 30 31 31 31 31 31 31 31 33 33 33 33 34 34 33 33 32 32 33 33 33 32 32 32 32 33 33 33 33 33 33 33 34 34 34 34 34 35 35 35 35 36
30 30 31 32 32 31 30 29 30 31 31 32 32 33 32 33 33 33 33 33 33 34 32 32 32 32 32 32 33 33 33 33 33 33 33 33 33 34 34 34 35 35 35 35
32 33 31 32 31 31 31 31 31 30 31 32 33 33 33 33 33 34 34 33 33 32 32 32 32 32 32 33 33 32 33 32 32 32 32 32 32 33 33 34 34 34 34 35
31 31 32 32 32 30 31 32 32 31 32 32 33 33 33 33 33 33 33 33 33 33 33 33 33 33 33 32 33 32 32 32 32 32 32 32 32 33 33 33 33 33 33 33
31 31 31 31 31 30 30 31 30 30 31 31 33 33 33 33 32 32 32 32 33 33 33 33 33 33 33 33 33 32 32 31 31 32 32 32 32 33 33 33 32 32 33 32
32 31 32 31 31 30 30 30 30 30 30 31 31 31 32 33 32 32 32 33 33 33 33 33 33 33 34 34 33 32 32 32 32 32 32 32 32 32 33 32 32 32 31 31
32 32 32 31 30 30 30 31 31 30 30 30 31 31 31 32 31 31 32 32 32 33 33 33 33 33 33 33 32 31 31 31 32 32 32 31 31 31 31 31 31 31 31 30
33 32 32 31 30 31 31 31 31 30 30 30 30 30 30 30 30 31 31 32 32 32 32 32 32 31 31 31 31 31 31 31 31 30 31 31 31 30 30 29 29 29 29 29
32 32 32 31 31 30 30 30 30 29 29 29 29 29 30 30 30 30 30 30 31 31 31 31 30 30 30 30 31 31 31 30 30 30 30 30 29 28 27 28 27 27 26 26
30 30 30 30 31 30 29 29 29 29 29 29 29 29 28 28 28 29 29 30 30 31 30 30 30 30 29 29 30 30 30 30 29 29 29 29 27 26 26 26 26 25 25 25
27 27 28 29 29 29 28 29 28 28 28 28 28 28 27 28 28 29 30 30 30 30 30 30 31 30 29 30 29 29 29 28 28 27 27 27 26 25 25 25 25 24 24 24
25 26 26 27 27 27 28 28 28 27 27 28 28 28 28 29 29 30 30 30 30 30 29 29 29 29 29 29 28 28 28 27 27 27 26 26 26 25 25 25 24 24 24 23
23 24 25 25 26 26 27 27 27 27 27 27 28 29 29 29 29 30 30 29 29 28 27 27 27 27 27 26 26 26 26 26 27 26 26 25 24 24 24 23 23 23 23 23
23 23 24 24 25 26 26 27 27 26 26 26 26 26 27 28 28 29 28 27 27 27 27 27 26 26 26 25 25 25 25 25 26 25 24 24 23 23 23 23 23 23 23 23
22 23 23 24 24 25 25 25 26 25 26 26 25 26 26 26 27 26 26 26 26 26 26 26 26 26 26 25 25 25 24 24 24 23 23 22 23 23 23 23 23 23 23 23
20 21 21 22 22 23 24 22 23 24 25 24 24 24 24 24 24 24 24 25 25 26 25 26 26 25 25 24 24 24 23 23 23 23 23 23 23 24 24 24 24 23 22 23
19 19 20 20 20 19 19 19 20 21 20 20 21 21 22 23 23 23 23 23 24 24 25 25 25 24 24 24 23 23 22 22 23 24 24 23 24 25 25 25 24 24 23 24
19 18 18 18 19 19 19 19 18 18 18 19 19 20 21 22 22 22 22 23 23 23 23 23 23 23 23 22 22 23 23 23 23 23 24 24 24 25 25 24 24 24 24 24

GEFSNGP_500_meanwind_372.txt.gz
Wind_Speed
26 26 25 25 25 24 25 26 26 25 25 24 24 25 24 22 21 21 19 21 22 21 20 20 20 21 22 21 22 23 23 23 23 23 23 24 25 25 25 25 26 25 25 26
28 27 26 26 26 25 25 26 27 27 26 25 24 24 24 23 22 22 21 22 22 23 21 20 21 22 23 23 24 24 24 24 24 25 26 26 26 27 28 28 27 26 27 28
29 28 28 27 26 25 26 26 27 27 26 25 24 25 23 23 23 22 21 23 24 24 23 23 23 24 24 26 25 25 25 25 25 26 27 28 28 28 28 28 28 28 29 29
29 28 29 26 25 24 25 26 27 27 27 26 25 23 23 24 24 25 25 25 24 23 23 25 26 26 26 26 26 26 26 26 26 27 28 29 29 29 29 29 29 30 30 30
28 29 28 27 26 25 25 26 28 28 28 26 26 27 26 25 26 26 26 27 26 25 25 25 26 27 28 28 28 27 27 28 28 28 29 30 30 30 30 30 30 30 31 31
27 28 29 27 27 28 28 29 29 28 27 27 26 27 27 27 26 27 28 27 27 27 27 27 28 28 29 28 29 29 28 29 29 29 30 30 30 31 31 31 31 31 31 32
28 28 28 27 27 28 30 30 29 28 28 28 28 28 28 28 27 27 28 28 29 28 28 29 30 30 30 29 30 29 30 30 30 30 30 30 30 31 31 31 31 31 32 32
27 29 28 28 28 29 28 28 29 29 28 28 28 29 29 29 29 29 28 29 30 30 30 30 31 30 30 30 30 30 30 31 31 31 31 31 30 31 30 31 31 32 32 32
28 28 28 27 28 28 28 28 29 29 28 28 28 29 30 30 29 29 28 29 30 30 30 30 31 30 30 30 30 31 31 31 32 31 31 31 30 30 30 31 31 31 32 32
28 28 28 27 26 26 27 26 27 27 27 27 28 29 29 29 29 29 28 28 30 30 30 30 31 30 30 31 30 30 31 31 31 32 31 31 31 31 31 31 31 31 32 32
28 28 27 27 26 26 26 24 24 24 25 27 28 30 30 31 30 29 29 29 29 30 30 31 31 30 30 30 30 30 30 31 31 31 31 30 31 31 31 31 31 31 31 31
29 29 28 28 27 26 25 25 26 25 26 27 28 29 29 29 29 30 31 31 30 30 31 30 30 31 31 30 30 31 31 30 31 31 30 30 30 31 31 30 31 31 31 31
29 29 28 28 28 28 28 28 28 27 27 27 28 28 28 28 28 30 31 31 30 30 30 30 30 30 31 31 31 30 30 30 30 30 30 30 30 30 30 30 30 30 30 30
29 28 28 28 29 30 29 29 29 29 28 27 26 26 26 27 27 28 29 30 30 30 30 30 29 29 30 30 30 30 30 30 30 29 29 30 30 29 29 29 29 29 29 29
30 30 30 30 31 31 30 30 29 29 29 28 27 27 27 28 30 29 29 30 30 30 30 30 30 30 30 30 31 31 31 30 30 29 30 30 30 29 29 29 29 28 29 29
31 31 32 32 31 31 31 31 31 31 31 30 29 29 29 30 30 29 29 30 30 30 30 30 30 31 31 31 31 31 30 30 30 29 29 30 30 29 29 28 28 28 28 28
31 31 32 31 31 31 31 31 31 30 30 30 29 29 30 30 30 30 30 30 30 30 30 30 30 30 30 30 30 30 30 30 29 29 29 29 29 29 28 28 28 28 28 28
29 30 31 31 31 32 32 32 32 32 31 31 30 30 30 29 29 29 29 29 30 30 30 30 29 29 29 28 29 29 29 29 29 29 29 28 29 28 28 28 28 28 27 27
27 29 29 29 30 31 31 31 31 32 31 30 29 28 28 29 29 29 29 29 29 29 30 30 29 28 29 29 29 29 29 29 29 28 27 27 28 28 29 29 28 27 26 26
26 26 27 27 28 29 30 30 31 31 31 30 29 28 27 28 28 28 29 29 29 29 29 29 28 29 29 29 29 29 30 29 27 27 28 28 28 28 28 27 26 25 25 24
25 25 26 26 27 27 28 28 29 30 30 29 29 29 28 28 28 28 28 29 29 29 29 28 28 28 28 28 29 29 29 28 27 27 27 28 27 26 26 25 25 25 24 24
24 24 24 25 26 27 27 28 29 29 28 28 27 27 27 27 27 28 28 28 28 28 29 28 27 27 28 28 28 28 27 27 27 27 27 26 25 25 24 24 24 24 24 24
22 22 23 23 24 25 26 27 28 27 26 25 26 26 26 26 26 26 26 26 26 26 26 26 26 27 27 27 27 26 26 26 26 26 25 24 24 24 24 24 23 23 23 23
21 21 21 22 22 22 23 24 25 25 25 24 24 24 24 25 25 25 25 24 24 24 24 24 25 25 26 26 26 26 26 26 26 25 24 24 24 24 24 23 23 23 23 22
18 19 20 21 22 22 22 22 22 22 23 23 23 23 24 24 24 24 24 22 22 23 23 23 23 23 23 24 24 24 24 24 24 24 24 24 23 23 23 23 23 23 23 23
16 17 17 18 18 19 20 20 20 20 21 21 21 21 22 22 22 23 23 21 21 21 22 22 22 22 22 22 22 22 22 23 23 24 25 24 24 23 23 24 25 25 24 24
14 14 15 15 16 16 17 17 18 18 18 18 19 19 20 21 21 21 21 20 21 21 22 22 21 21 21 21 21 22 22 23 23 23 23 22 22 22 22 23 23 24 24 23

GEFSNGP_500_meanwind_378.txt.gz
Wind_Speed
27 26 26 27 26 27 27 27 27 26 26 24 23 24 24 23 22 22 21 20 19 20 20 20 21 21 21 21 20 21 22 22 23 23 23 22 23 23 23 23 24 24 25 26
28 28 27 27 26 26 27 28 28 27 27 25 25 25 24 24 23 22 21 20 20 21 21 21 22 23 22 22 22 23 23 24 24 24 24 23 24 24 25 25 26 26 26 26
30 29 29 28 26 26 27 28 28 28 26 27 26 25 25 25 24 22 21 21 21 22 22 23 23 23 23 24 24 24 23 23 24 25 25 25 25 26 26 27 28 28 28 28
30 30 31 29 27 26 26 27 28 27 26 26 25 25 24 24 23 23 23 23 22 22 23 23 24 24 24 24 25 24 24 24 25 25 25 26 27 27 28 28 29 29 29 29
29 30 30 29 27 27 26 26 26 26 26 25 25 25 24 23 23 23 24 23 23 23 23 24 24 24 25 25 25 25 25 25 26 26 27 28 28 29 29 30 30 30 31 31
29 29 29 27 27 27 26 26 26 25 25 26 26 26 24 24 24 24 24 24 24 25 25 25 25 25 25 26 26 26 26 27 28 29 29 29 29 29 29 29 30 30 30 30
28 28 28 27 26 26 26 26 26 26 26 26 27 27 26 26 25 25 25 25 25 24 25 26 25 25 25 27 27 28 28 29 29 29 29 29 29 29 29 30 30 30 30 30
28 28 27 26 25 26 26 25 25 25 25 25 25 26 26 25 25 24 24 25 25 25 25 26 25 25 26 27 27 28 28 28 28 28 28 28 29 30 30 30 30 29 29 30
27 26 25 25 25 26 26 26 26 26 25 25 26 26 26 26 25 25 25 26 25 25 25 25 26 26 27 27 26 27 27 27 27 28 28 28 29 29 29 29 29 30 30 30
27 27 26 26 26 27 26 27 26 26 26 25 25 26 26 25 25 25 26 26 25 25 25 26 27 27 27 27 27 28 28 28 28 28 28 28 28 28 28 29 29 29 29 29
28 28 27 27 27 27 27 27 27 27 27 26 26 26 26 25 24 25 25 25 25 26 26 26 26 27 28 28 29 29 28 27 27 28 28 28 28 28 28 29 29 29 29 29
29 29 29 27 27 26 26 26 26 26 26 26 26 26 25 25 25 25 25 25 25 26 27 27 27 28 29 29 29 28 28 29 29 28 28 28 28 27 28 29 29 29 29 30
30 29 29 29 27 26 26 26 27 27 27 26 25 25 25 26 26 26 26 26 26 27 28 28 28 28 29 29 29 29 30 30 29 28 28 28 28 28 28 28 28 29 29 29
30 30 30 29 29 28 27 28 28 28 27 26 26 26 26 27 27 27 27 27 28 29 29 30 29 29 29 29 29 29 30 30 30 30 29 29 29 29 28 28 28 28 28 29
30 30 30 30 29 28 28 28 29 28 28 28 28 28 28 28 28 28 29 29 30 30 30 30 30 29 29 29 29 29 29 29 30 30 30 30 29 29 29 29 29 28 29 29
28 29 29 29 29 29 28 28 29 29 28 27 27 28 28 29 29 29 29 29 29 30 30 30 31 30 30 30 29 29 29 29 29 29 29 29 29 29 29 29 29 29 29 29
27 28 28 28 28 29 29 29 30 30 29 28 28 28 29 29 29 30 30 30 30 30 30 30 30 30 30 29 29 29 29 29 29 29 29 29 29 28 29 29 29 29 28 29
27 27 28 28 29 28 28 28 28 29 30 31 31 30 30 30 30 30 30 30 31 31 30 29 29 29 29 28 28 28 28 29 29 29 29 28 29 28 29 29 29 29 29 30
26 26 27 27 28 28 28 28 29 30 30 31 30 30 30 30 30 30 31 31 31 30 29 29 29 29 29 30 30 30 29 29 29 29 29 29 29 30 30 29 29 29 29 29
24 25 25 26 26 27 27 27 28 28 28 29 29 30 29 30 30 30 30 30 30 29 29 29 29 30 31 31 31 30 30 29 29 28 29 29 30 30 29 29 29 28 29 29
22 23 24 24 25 25 26 26 27 28 29 29 29 28 28 29 30 30 30 30 30 30 29 30 30 30 29 29 29 29 29 29 29 28 28 29 30 29 29 28 28 28 28 28
20 21 22 22 23 24 25 25 26 26 26 27 27 28 28 28 28 29 29 29 29 29 28 28 28 28 28 27 28 28 28 28 28 28 28 28 28 28 28 28 28 28 27 27
20 21 21 21 21 22 23 23 23 23 23 24 25 26 27 27 27 28 27 26 26 26 26 26 27 27 27 27 27 27 27 27 27 27 28 28 28 27 27 27 27 26 26 26
19 20 21 20 20 20 20 21 21 21 21 22 23 24 25 26 26 26 26 25 25 25 25 26 26 26 27 27 27 26 26 25 26 26 27 27 27 26 26 26 26 25 25 25
18 18 17 18 18 19 19 19 19 20 20 20 21 22 23 23 23 24 24 24 24 24 25 25 26 26 26 26 25 25 25 25 25 25 25 25 25 25 24 24 24 24 24 24
16 16 16 16 16 17 17 18 18 19 19 19 20 20 20 20 20 21 21 22 22 22 23 23 24 25 24 23 22 23 24 24 25 24 24 24 24 23 23 23 23 23 23 22
15 15 15 16 16 16 16 17 17 18 18 19 19 19 19 18 18 19 19 20 20 20 21 22 22 21 21 20 20 21 22 23 23 22 22 22 22 22 21 21 21 21 21 21

GEFSNGP_500_meanwind_384.txt.gz
Wind_Speed
27 26 26 26 24 24 24 24 23 23 23 22 23 22 22 22 22 21 21 20 20 20 20 21 21 21 21 21 22 22 22 22 22 22 23 22 22 23 24 24 24 25 25 25
26 27 27 26 25 25 26 25 24 25 25 24 24 23 23 23 22 22 22 21 21 20 21 22 22 22 22 22 22 23 22 22 22 23 24 24 24 25 26 27 26 26 26 26
24 25 27 27 25 25 26 25 25 25 25 25 25 24 24 23 22 23 23 23 22 22 21 22 22 23 24 23 24 23 22 23 24 24 24 25 26 26 28 28 28 27 28 28
25 26 27 25 25 25 25 25 24 24 25 26 25 24 24 24 23 23 23 23 23 23 23 23 23 24 24 23 23 24 24 25 25 25 25 26 27 28 29 29 28 28 28 29
25 25 26 25 26 25 25 26 26 26 26 25 25 24 24 24 24 24 23 24 24 23 23 23 23 24 24 24 24 25 26 26 26 27 27 27 27 28 28 28 29 29 30 30
26 25 24 25 24 24 24 25 24 24 24 24 24 23 23 23 23 23 23 23 22 22 23 23 23 23 24 25 25 26 26 26 27 28 28 28 28 29 28 28 29 30 30 30
26 25 25 26 25 24 23 24 24 23 23 23 23 23 23 23 23 23 23 23 23 23 24 24 23 24 25 25 25 26 26 26 27 27 28 28 28 29 28 29 30 30 31 30
26 25 26 26 25 24 24 24 24 23 23 23 23 23 22 22 22 23 23 23 24 24 24 24 24 25 25 25 26 26 26 26 26 27 28 28 28 28 29 30 30 31 30 30
26 27 27 27 26 26 26 25 25 24 23 24 24 24 23 23 23 23 24 24 25 25 25 24 25 25 26 26 26 26 27 27 27 28 28 29 29 29 30 30 30 30 30 30
28 28 28 27 27 27 27 27 27 26 26 26 26 25 24 24 25 25 25 25 25 26 26 26 26 26 26 26 27 27 27 28 28 29 29 29 30 30 30 31 31 31 30 30
28 28 28 28 28 27 27 27 27 26 26 26 26 26 27 26 26 26 26 27 27 27 27 27 27 26 27 27 28 28 28 28 29 29 30 30 30 31 31 31 31 31 30 30
28 29 30 29 28 27 27 27 28 28 27 27 27 27 26 26 26 26 27 27 27 27 27 27 27 27 27 28 28 28 28 28 28 29 30 30 30 31 31 31 30 30 30 30
27 27 28 27 28 27 27 27 28 28 28 28 28 27 27 26 26 26 26 27 27 27 28 28 28 28 29 29 29 29 28 29 29 30 29 29 30 30 30 30 30 30 29 29
27 26 26 27 27 27 26 26 28 29 29 28 28 28 27 27 27 27 27 28 28 28 28 28 29 29 30 30 30 30 30 30 30 31 30 29 29 29 30 30 29 29 29 28
25 25 26 26 27 28 27 26 27 28 28 29 29 29 28 28 29 29 29 29 29 29 29 29 30 30 30 30 31 31 31 30 31 31 30 29 29 29 29 29 29 29 28 28
25 25 25 25 26 26 27 26 26 27 27 28 29 29 30 30 31 31 30 30 30 30 29 29 30 30 30 30 31 31 31 30 30 30 29 29 29 29 29 28 28 28 29 29
24 24 25 25 25 25 25 25 25 25 26 27 28 29 30 31 32 30 29 30 30 30 30 30 30 30 30 30 30 30 30 30 29 28 28 28 28 29 29 29 28 28 29 29
23 23 23 23 23 23 24 24 24 24 25 25 26 28 29 30 30 30 29 29 30 30 30 30 30 30 30 30 30 30 30 30 30 29 28 28 28 28 29 29 29 29 29 29
21 21 21 22 22 22 23 23 23 24 25 25 25 26 27 28 28 27 27 28 29 29 29 29 30 30 29 29 30 30 30 30 29 29 28 28 28 28 29 29 29 29 29 29
19 20 21 22 22 22 23 23 23 25 25 25 26 26 26 25 25 26 27 28 28 28 29 29 29 29 30 30 30 30 30 29 29 29 28 28 29 29 29 29 29 29 29 30
18 19 20 20 20 21 22 22 23 24 25 25 25 25 25 25 26 26 27 27 27 28 28 29 29 29 29 30 30 30 29 28 28 28 28 28 28 29 29 29 29 29 29 29
17 18 19 19 19 19 20 20 21 22 22 23 24 25 25 25 25 26 26 26 26 27 28 29 29 29 29 29 29 29 28 28 28 28 28 27 28 28 29 28 27 27 28 28
17 18 18 19 19 18 18 19 19 20 20 21 22 23 23 23 24 24 24 24 25 26 27 27 28 28 28 28 27 27 27 27 27 27 26 26 27 27 27 27 26 26 26 26
17 17 17 18 18 17 17 18 18 18 18 19 20 21 21 21 21 22 23 23 24 24 25 25 25 26 26 26 26 26 26 26 25 25 26 26 26 26 26 25 25 25 25 25
15 15 16 16 17 17 17 17 17 17 17 18 19 20 21 20 20 21 22 22 22 23 23 23 23 24 24 24 24 24 24 23 24 24 25 25 24 24 24 24 24 23 23 22
13 13 14 15 16 16 17 17 17 17 17 18 19 19 19 19 19 20 20 19 19 20 20 21 21 21 21 21 21 22 22 22 22 22 22 23 22 22 22 22 21 21 21 21
12 13 14 15 15 16 17 17 18 18 18 18 18 17 17 17 17 17 16 16 16 17 18 18 19 19 19 20 20 21 20 20 20 20 21 21 21 20 20 20 20 20 20 20